This is the latest recevied weather packets stored in our database for station/object PA2JOK. If no packets are shown the sender has not sent any weather packets the latest 10 day(s).
| Time | Temp. | Humidity | Pressure | Rain* | Wind** | Luminosity | Snow |
|---|---|---|---|---|---|---|---|
| 1777754882 | 17.22° C | 59% | 1011.8 hPa | 0 mm | - | - | - |
| 1777753982 | 17.22° C | 58% | 1011.8 hPa | 0 mm | - | - | - |
| 1777753083 | 17.22° C | 57% | 1011.7 hPa | 0 mm | - | - | - |
| 1777752183 | 17.22° C | 55% | 1012 hPa | 0 mm | - | - | - |
| 1777751283 | 17.78° C | 55% | 1012.1 hPa | 0 mm | - | - | - |
| 1777750383 | 17.78° C | 55% | 1012.3 hPa | 0 mm | - | - | - |
| 1777749483 | 17.78° C | 54% | 1012.3 hPa | 0 mm | - | - | - |
| 1777748583 | 18.33° C | 54% | 1012.3 hPa | 0 mm | - | - | - |
| 1777747683 | 18.89° C | 54% | 1012.3 hPa | 0 mm | - | - | - |
| 1777746783 | 19.44° C | 54% | 1012.4 hPa | 0 mm | - | - | - |
| 1777745882 | 20° C | 52% | 1012.5 hPa | 0 mm | - | - | - |
| 1777744982 | 20.56° C | 51% | 1012.4 hPa | 0 mm | - | - | - |
| 1777744083 | 20.56° C | 49% | 1012.1 hPa | 0 mm | - | - | - |
| 1777743183 | 21.11° C | 48% | 1012.3 hPa | 0 mm | - | - | - |
| 1777742282 | 21.11° C | 47% | 1012.6 hPa | 0 mm | - | - | - |
| 1777741382 | 21.11° C | 47% | 1012.7 hPa | 0 mm | - | - | - |
| 1777740482 | 21.67° C | 49% | 1013 hPa | 0 mm | - | - | - |
| 1777739583 | 21.67° C | 49% | 1013.2 hPa | 0 mm | - | - | - |
| 1777738683 | 21.67° C | 49% | 1013.3 hPa | 0 mm | - | - | - |
| 1777737782 | 21.67° C | 50% | 1013.3 hPa | 0 mm | - | - | - |
| 1777736882 | 21.67° C | 50% | 1013.5 hPa | 0 mm | - | - | - |
| 1777735983 | 22.22° C | 49% | 1013.7 hPa | 0 mm | - | - | - |
| 1777735082 | 22.22° C | 49% | 1013.9 hPa | 0 mm | - | - | - |
| 1777734183 | 21.67° C | 51% | 1014.1 hPa | 0 mm | - | - | - |
| 1777733282 | 22.22° C | 51% | 1014.3 hPa | 0 mm | - | - | - |
* Rain latest hour (hover to see other rain measurements)
** Current wind speed in m/s (hover to see current wind gust speed)